Wind_Speed
5 5 5 5 5 5 6 6 6 6 6 6 6 5 5 5 5 5 4 4 4 4 5 4 4 4 4 5 5 5 5 5 5 5 5 5 5 5 4 4 4 4 5
6 6 6 5 6 6 6 6 7 7 7 6 6 7 6 6 6 5 5 5 5 5 5 5 5 5 5 5 5 6 6 6 6 6 7 6 6 6 6 6 6 6 6
7 7 7 6 6 7 7 7 7 7 7 7 7 7 7 7 7 7 6 6 6 6 6 6 6 6 7 6 6 6 7 7 7 7 7 7 7 7 7 7 6 7 7
7 7 7 7 7 7 8 8 8 8 7 7 7 7 7 8 7 7 7 7 7 7 7 7 7 7 7 7 7 7 7 7 7 8 8 8 8 8 8 8 8 7 7
7 7 7 8 8 8 8 9 8 8 8 8 8 8 8 7 7 8 8 8 8 8 8 8 8 8 8 8 8 7 7 8 8 8 9 8 8 8 8 8 9 9 8
7 7 8 8 8 8 9 9 8 8 8 8 8 8 8 8 8 8 9 9 9 9 9 9 9 9 9 8 8 8 8 9 9 10 9 9 9 9 9 9 9 10 9
7 8 8 8 8 8 9 9 9 9 9 9 9 9 9 9 9 9 9 10 10 10 10 10 10 10 10 9 9 8 9 9 10 10 10 10 10 10 10 10 10 11 11
8 8 9 9 9 9 9 9 9 9 9 9 9 9 9 10 9 10 10 10 10 10 10 11 10 11 11 10 10 10 10 11 11 11 11 11 10 10 11 11 11 12 11
9 9 9 9 9 9 8 8 8 8 9 9 9 9 9 10 10 10 10 10 10 10 10 10 10 10 11 11 11 11 11 11 11 12 12 11 11 12 11 12 11 11 12
9 10 10 9 9 9 9 8 8 9 9 8 8 8 9 9 9 10 10 10 10 10 10 10 10 10 11 12 12 12 12 12 11 11 12 12 12 13 12 12 12 12 12
9 9 9 9 9 9 9 9 9 9 9 9 9 9 9 9 10 10 10 10 10 10 10 10 11 11 11 12 12 12 11 11 11 11 12 12 13 13 13 13 13 13 13
9 9 9 9 9 9 9 9 9 9 8 8 9 9 9 10 10 10 10 10 10 10 10 10 11 11 11 11 11 11 11 11 11 12 12 12 13 13 13 13 13 13 13
9 9 9 9 9 8 8 8 8 8 9 9 9 9 10 11 11 10 10 10 10 10 10 11 11 11 11 11 11 11 12 12 12 12 12 12 12 13 13 13 13 13 14
9 9 9 8 8 8 8 9 9 9 10 10 10 10 11 11 11 11 11 11 10 11 10 11 11 11 11 11 11 11 11 11 12 12 12 12 12 12 12 12 13 13 13
8 9 9 8 9 9 9 9 10 10 10 11 11 10 11 11 11 10 10 10 10 11 11 10 11 11 11 11 11 11 11 11 11 11 11 12 12 12 12 12 12 13 13
9 9 8 8 8 9 10 10 11 11 11 11 11 11 11 11 11 10 10 10 10 10 10 10 10 10 11 11 11 10 11 11 11 11 11 11 11 11 11 11 11 12 12
9 9 9 9 9 10 10 11 11 10 10 11 11 11 11 10 10 10 10 10 11 11 10 10 11 11 11 11 11 11 11 11 11 11 11 10 10 10 11 11 11 11 11
10 10 10 10 10 11 11 11 11 10 10 11 11 11 11 10 11 10 10 11 11 11 11 11 11 11 11 10 11 12 12 11 12 12 12 12 11 11 11 11 11 12 11
11 10 11 11 11 11 11 11 11 10 10 11 11 11 11 10 11 10 10 11 11 11 11 11 11 12 11 11 11 11 12 12 12 12 12 12 12 12 12 12 11 11 11
11 11 11 11 12 12 12 12 11 11 12 12 11 11 11 11 10 10 11 11 11 11 11 11 12 12 12 12 12 12 12 11 12 12 12 11 11 12 12 12 11 11 10
12 12 12 12 12 12 12 12 12 12 12 12 12 12 12 11 12 12 11 12 12 12 12 11 11 12 11 11 11 11 12 11 11 12 12 11 12 12 12 12 12 11 11
12 12 12 12 13 13 12 12 12 13 13 13 13 13 12 12 12 13 13 12 12 12 12 12 12 12 12 12 11 11 11 11 11 12 12 12 12 13 13 13 13 12 12
12 13 13 13 13 13 13 13 13 13 13 14 14 14 14 13 14 13 13 13 13 13 13 12 13 13 13 12 12 12 12 12 12 12 12 12 13 13 13 13 13 13 13
13 13 13 13 13 13 13 13 13 13 14 14 14 14 15 14 15 14 14 14 13 13 13 13 13 13 13 13 13 13 13 13 13 13 13 14 14 14 14 14 14 14 14
13 13 14 14 14 13 13 13 14 14 14 15 15 16 15 15 15 15 15 15 14 14 14 14 14 14 14 14 14 14 15 15 15 15 15 15 15 14 15 15 15 14 14
13 14 15 14 14 14 14 14 14 15 16 16 16 17 17 17 17 16 15 15 15 15 15 15 15 15 15 15 15 15 15 15 15 15 15 15 15 15 15 15 14 14 14
Wind_Direction
258 257 258 260 270 276 275 272 268 272 270 264 266 271 277 277 274 267 263 264 256 251 250 252 253 257 260 257 258 260 260 260 267 270 275 274 274 268 268 267 264 262 262
261 256 259 259 267 276 278 276 272 272 272 266 268 271 274 277 274 271 267 264 260 259 259 262 257 258 264 264 264 265 265 264 268 274 278 276 272 266 271 272 270 268 266
263 262 262 264 271 276 278 278 275 271 268 271 273 273 273 275 273 271 271 270 266 261 259 266 262 262 265 270 271 270 267 267 271 273 277 277 277 271 267 271 271 273 272
270 269 271 269 275 278 279 279 278 275 269 272 274 272 273 275 274 271 271 269 269 267 264 266 268 266 265 268 268 269 270 269 270 273 271 272 277 276 269 270 268 268 269
271 272 273 275 277 279 282 283 283 280 273 274 275 270 272 273 273 271 270 270 270 270 268 268 269 269 269 269 269 270 272 269 269 267 267 271 272 272 272 273 265 263 262
273 273 275 276 279 282 285 287 285 280 278 279 276 270 269 271 271 271 272 272 273 272 270 267 268 268 271 271 270 271 270 267 263 264 269 269 271 273 274 277 271 265 260
273 273 277 280 282 283 284 285 284 280 277 278 272 267 267 268 272 274 275 273 273 272 272 269 267 268 269 269 268 268 269 271 271 271 271 271 272 272 274 278 277 271 269
275 273 276 282 287 287 286 284 282 279 276 275 273 269 268 267 267 271 275 275 275 276 276 274 274 272 269 267 267 269 272 271 271 270 270 271 272 274 275 277 280 277 273
274 277 278 281 283 284 289 288 290 283 276 276 276 272 267 268 269 272 275 276 278 280 278 276 276 275 273 270 269 271 273 273 273 270 267 268 272 274 273 274 275 275 275
277 279 278 280 282 284 289 294 294 290 281 279 282 279 271 272 272 273 275 276 278 278 280 280 278 277 278 274 270 274 273 273 273 271 268 270 271 272 271 273 273 274 274
279 280 283 285 286 288 291 295 295 295 287 282 282 281 279 279 279 276 275 278 279 279 280 279 279 278 283 278 272 273 274 274 271 272 271 271 272 272 271 272 272 273 273
279 281 285 286 288 294 296 295 293 294 292 288 283 281 284 285 283 282 278 275 278 281 280 280 280 280 279 278 277 277 276 275 273 274 275 275 274 273 272 271 271 271 271
279 283 285 289 292 296 295 296 295 293 293 296 295 291 289 290 288 288 285 281 281 281 282 283 282 281 278 278 277 275 275 275 278 278 277 277 275 274 273 271 270 269 270
283 284 286 286 288 291 292 292 296 295 292 296 296 296 296 294 289 284 284 283 283 282 282 284 282 280 282 282 278 275 276 279 282 283 282 281 279 274 272 272 272 269 269
287 286 286 286 283 285 288 292 294 295 295 298 299 298 297 296 292 288 289 288 283 282 285 283 281 281 282 282 282 280 278 282 285 286 285 286 284 281 276 273 274 272 270
285 286 286 283 282 284 288 292 295 293 295 297 297 296 296 293 292 290 289 290 286 286 286 285 286 286 287 287 284 284 283 284 283 283 285 288 287 285 280 278 276 274 272
285 286 285 285 286 289 290 292 293 294 296 296 295 295 295 292 291 288 287 286 289 291 292 290 286 286 289 289 286 284 286 285 284 282 282 284 283 280 281 283 283 281 276
283 284 285 287 290 291 290 291 292 295 297 296 295 296 293 295 294 292 290 285 288 291 293 293 290 286 287 289 287 285 286 284 286 284 283 284 284 286 287 288 285 286 278
284 285 285 286 290 292 290 289 289 290 293 297 297 296 291 295 298 296 294 290 287 288 292 294 291 288 287 285 285 283 282 283 284 284 284 285 287 289 289 287 286 286 287
286 285 286 286 287 289 290 287 287 290 294 296 298 299 295 294 296 295 293 291 289 288 289 291 289 290 288 286 286 285 284 283 285 284 287 288 289 290 289 286 286 283 283
289 287 289 290 289 290 291 289 287 290 294 297 298 300 300 295 293 294 293 290 289 288 286 286 286 287 287 289 289 288 289 288 290 290 290 292 291 292 292 286 282 282 282
292 291 292 292 291 291 292 290 291 292 291 292 293 296 298 298 296 297 296 292 289 289 288 287 284 284 286 290 292 292 291 289 289 292 293 291 288 289 289 287 285 282 281
293 292 292 292 291 291 292 290 291 293 293 294 294 294 293 295 296 296 294 291 288 285 287 289 288 286 287 289 291 292 292 293 291 290 289 288 288 288 287 286 285 284 281
292 292 293 292 291 290 290 290 291 294 294 294 293 294 293 293 293 290 287 287 287 285 286 288 289 289 288 288 289 289 289 290 290 288 287 287 287 288 287 286 283 283 283
289 289 292 291 289 287 286 287 289 293 294 294 293 294 293 292 291 290 288 287 287 285 285 287 288 289 288 287 287 287 287 287 286 289 289 289 289 288 287 285 282 282 283
289 290 290 289 289 289 288 287 288 291 292 293 293 292 291 292 291 291 289 286 286 286 285 285 285 288 288 287 287 287 286 286 286 288 289 288 288 288 288 287 283 284 284
Height
5875 5875 5875 5875 5876 5876 5876 5876 5875 5875 5875 5875 5875 5875 5875 5874 5874 5874 5874 5874 5874 5874 5874 5874 5874 5874 5874 5874 5874 5874 5874 5874 5874 5874 5874 5874 5874 5874 5874 5874 5875 5876 5876
5874 5874 5875 5875 5875 5875 5875 5875 5874 5874 5874 5874 5874 5874 5874 5873 5873 5873 5873 5873 5873 5873 5873 5873 5873 5873 5873 5873 5873 5873 5873 5873 5873 5873 5873 5874 5874 5874 5874 5874 5875 5875 5875
5873 5873 5873 5874 5874 5874 5874 5873 5873 5873 5873 5873 5873 5873 5873 5873 5873 5873 5872 5872 5872 5872 5872 5872 5872 5872 5872 5872 5872 5872 5872 5872 5872 5872 5872 5873 5873 5873 5873 5873 5874 5874 5874
5872 5872 5872 5873 5873 5873 5872 5872 5872 5871 5871 5872 5872 5872 5872 5872 5872 5872 5871 5871 5871 5871 5871 5871 5871 5871 5871 5871 5871 5871 5871 5871 5871 5871 5871 5871 5872 5872 5872 5872 5873 5873 5873
5871 5871 5871 5871 5871 5871 5871 5871 5870 5870 5870 5870 5870 5870 5870 5870 5870 5870 5870 5870 5870 5870 5870 5870 5870 5869 5869 5870 5870 5870 5869 5869 5869 5869 5870 5870 5870 5870 5871 5871 5871 5871 5872
5870 5870 5870 5870 5870 5870 5870 5870 5869 5869 5869 5869 5869 5869 5869 5869 5869 5869 5869 5868 5868 5868 5868 5868 5868 5868 5868 5868 5868 5868 5868 5868 5868 5868 5868 5868 5869 5869 5869 5870 5870 5870 5870
5869 5869 5869 5869 5869 5869 5868 5868 5868 5868 5868 5868 5867 5867 5868 5867 5867 5867 5867 5867 5867 5867 5867 5867 5866 5866 5866 5866 5866 5866 5866 5866 5867 5867 5867 5867 5867 5867 5867 5868 5868 5868 5868
5868 5868 5867 5867 5867 5867 5867 5866 5866 5866 5866 5866 5866 5866 5866 5866 5866 5866 5865 5865 5865 5865 5865 5865 5865 5864 5864 5864 5865 5865 5865 5865 5865 5865 5865 5866 5866 5866 5865 5866 5866 5866 5866
5866 5866 5866 5866 5866 5866 5865 5865 5865 5865 5865 5864 5864 5864 5864 5864 5864 5864 5864 5864 5863 5863 5863 5863 5863 5863 5862 5863 5863 5863 5863 5863 5863 5863 5863 5863 5864 5864 5864 5864 5864 5864 5864
5865 5865 5865 5865 5864 5864 5864 5864 5863 5863 5863 5863 5863 5863 5862 5862 5862 5862 5862 5862 5862 5861 5861 5861 5861 5861 5860 5860 5860 5860 5860 5860 5861 5861 5861 5861 5861 5861 5861 5862 5862 5862 5862
5863 5863 5863 5863 5863 5863 5863 5862 5862 5862 5861 5861 5861 5861 5861 5861 5861 5860 5860 5860 5860 5860 5859 5859 5859 5859 5858 5858 5858 5858 5858 5858 5858 5858 5858 5859 5859 5859 5859 5859 5860 5860 5860
5862 5862 5862 5862 5861 5861 5861 5861 5860 5860 5860 5860 5859 5859 5859 5859 5859 5859 5858 5858 5858 5858 5857 5857 5857 5857 5857 5856 5856 5856 5856 5856 5856 5856 5856 5856 5856 5856 5856 5857 5857 5857 5857
5860 5860 5860 5860 5860 5860 5860 5859 5859 5859 5858 5858 5858 5858 5857 5857 5857 5857 5857 5856 5856 5856 5856 5855 5855 5855 5855 5854 5854 5854 5854 5854 5854 5854 5854 5854 5853 5853 5853 5854 5854 5854 5854
5859 5859 5859 5858 5858 5858 5858 5858 5857 5857 5857 5857 5856 5856 5856 5855 5855 5855 5855 5855 5854 5854 5854 5853 5853 5852 5852 5852 5852 5852 5852 5852 5852 5851 5851 5851 5851 5850 5851 5851 5851 5852 5852
5857 5857 5857 5857 5857 5857 5856 5856 5856 5856 5855 5855 5854 5854 5854 5853 5853 5853 5852 5852 5852 5852 5852 5851 5851 5851 5850 5850 5850 5850 5849 5849 5849 5849 5849 5848 5848 5848 5848 5849 5849 5849 5849
5856 5856 5855 5855 5855 5855 5855 5854 5854 5854 5853 5853 5853 5852 5852 5852 5851 5851 5851 5850 5850 5850 5849 5849 5849 5848 5848 5848 5847 5847 5847 5847 5847 5847 5846 5846 5846 5846 5846 5846 5846 5846 5846
5854 5854 5854 5854 5853 5853 5853 5853 5852 5852 5852 5851 5851 5850 5850 5849 5849 5849 5849 5849 5848 5848 5847 5847 5847 5846 5846 5845 5845 5845 5845 5844 5844 5844 5844 5844 5843 5843 5843 5843 5843 5843 5843
5852 5852 5852 5852 5852 5851 5851 5851 5850 5850 5850 5849 5849 5848 5848 5848 5847 5847 5847 5846 5846 5846 5845 5845 5844 5844 5844 5843 5843 5842 5842 5842 5842 5842 5841 5841 5841 5841 5841 5840 5840 5840 5840
5850 5850 5850 5850 5850 5850 5849 5849 5849 5848 5848 5847 5847 5846 5846 5846 5845 5845 5844 5844 5843 5843 5843 5842 5842 5841 5841 5841 5841 5840 5840 5839 5839 5839 5839 5838 5838 5838 5838 5838 5838 5838 5837
5848 5848 5848 5848 5848 5847 5847 5847 5846 5846 5846 5846 5845 5844 5844 5843 5843 5842 5842 5841 5841 5841 5840 5840 5839 5839 5839 5838 5838 5838 5837 5837 5836 5836 5836 5835 5835 5835 5835 5835 5835 5835 5835
5846 5846 5846 5845 5845 5845 5845 5844 5844 5844 5843 5843 5842 5842 5841 5841 5840 5840 5839 5839 5838 5838 5838 5837 5837 5836 5836 5836 5835 5835 5835 5834 5834 5833 5833 5833 5832 5832 5832 5832 5832 5832 5832
5843 5843 5843 5843 5842 5842 5842 5842 5841 5841 5841 5840 5840 5839 5838 5838 5837 5837 5836 5836 5835 5835 5835 5834 5834 5833 5833 5833 5833 5832 5832 5832 5831 5830 5830 5829 5829 5829 5829 5829 5829 5829 5829
5841 5841 5840 5840 5840 5839 5839 5839 5838 5838 5837 5837 5836 5836 5835 5835 5834 5834 5833 5833 5832 5832 5831 5831 5831 5831 5830 5830 5829 5830 5829 5829 5828 5828 5827 5827 5827 5826 5826 5826 5825 5826 5826
5839 5838 5838 5837 5837 5836 5836 5836 5835 5835 5834 5834 5833 5833 5832 5831 5830 5829 5829 5829 5828 5828 5828 5828 5827 5827 5827 5827 5826 5826 5826 5825 5825 5825 5825 5824 5823 5823 5822 5822 5822 5822 5822
5836 5835 5835 5834 5834 5833 5833 5833 5832 5831 5831 5830 5830 5829 5828 5827 5826 5826 5825 5825 5825 5824 5824 5824 5824 5823 5823 5823 5823 5822 5822 5821 5821 5821 5821 5820 5820 5819 5819 5818 5818 5818 5818
5833 5832 5832 5831 5830 5830 5830 5829 5829 5828 5827 5827 5826 5825 5824 5823 5822 5822 5821 5821 5821 5820 5820 5820 5820 5820 5819 5819 5819 5818 5818 5817 5817 5817 5816 5816 5816 5815 5814 5814 5814 5814 5814